TimeEDT,TemperatureF,Dew PointF,Humidity,Sea Level PressureIn,VisibilityMPH,Wind Direction,Wind SpeedMPH,Gust SpeedMPH,PrecipitationIn,Events,Conditions,WindDirDegrees,DateUTC
12:05 AM,55.4,55.4,100,29.98,9.0,Calm,Calm,-,0.00,,Clear,0,2013-05-08 04:05:00
12:25 AM,55.4,55.4,100,29.97,6.0,Calm,Calm,-,0.00,,Clear,0,2013-05-08 04:25:00
12:45 AM,55.4,55.4,100,29.97,8.0,Calm,Calm,-,0.00,,Clear,0,2013-05-08 04:45:00
1:05 AM,55.4,55.4,100,29.97,8.0,Calm,Calm,-,0.00,,Clear,0,2013-05-08 05:05:00
1:25 AM,55.4,55.4,100,29.97,7.0,Calm,Calm,-,0.00,,Clear,0,2013-05-08 05:25:00
1:45 AM,55.4,55.4,100,29.96,8.0,Calm,Calm,-,0.00,,Clear,0,2013-05-08 05:45:00
2:05 AM,53.6,53.6,100,29.95,3.0,Calm,Calm,-,0.00,,Clear,0,2013-05-08 06:05:00
2:25 AM,53.6,53.6,100,29.95,3.0,Calm,Calm,-,0.00,,Clear,0,2013-05-08 06:25:00
2:45 AM,53.6,53.6,100,29.94,5.0,Calm,Calm,-,0.00,,Clear,0,2013-05-08 06:45:00
3:05 AM,53.6,-9999,N/A,29.94,5.0,Calm,Calm,-,0.00,,Clear,0,2013-05-08 07:05:00
3:25 AM,53.6,-9999,N/A,29.94,3.0,Calm,Calm,-,0.00,,Clear,0,2013-05-08 07:25:00
3:45 AM,51.8,-9999,N/A,29.94,1.0,Calm,Calm,-,0.00,,Mostly Cloudy,0,2013-05-08 07:45:00
4:05 AM,51.8,-9999,N/A,29.94,3.0,Calm,Calm,-,0.00,,Mostly Cloudy,0,2013-05-08 08:05:00
4:25 AM,53.6,-9999,N/A,29.94,10.0,NNE,3.5,-,0.00,,Mostly Cloudy,20,2013-05-08 08:25:00
4:45 AM,53.6,-9999,N/A,29.94,10.0,North,5.8,-,0.00,,Mostly Cloudy,360,2013-05-08 08:45:00
5:05 AM,53.6,-9999,N/A,29.94,10.0,North,5.8,-,0.00,,Mostly Cloudy,360,2013-05-08 09:05:00
5:25 AM,53.6,-9999,N/A,29.94,10.0,NNW,4.6,-,0.00,,Overcast,340,2013-05-08 09:25:00
5:45 AM,53.6,-9999,N/A,29.94,10.0,North,6.9,-,0.00,,Overcast,360,2013-05-08 09:45:00
6:05 AM,53.6,-9999,N/A,29.94,10.0,North,6.9,-,0.00,,Mostly Cloudy,360,2013-05-08 10:05:00
6:25 AM,53.6,53.6,100,29.94,10.0,North,6.9,-,0.00,,Mostly Cloudy,350,2013-05-08 10:25:00
6:45 AM,53.6,53.6,100,29.95,10.0,North,5.8,-,0.00,,Mostly Cloudy,10,2013-05-08 10:45:00
7:05 AM,53.6,53.6,100,29.95,10.0,North,4.6,-,0.00,,Scattered Clouds,360,2013-05-08 11:05:00
7:25 AM,55.4,55.4,100,29.95,10.0,NNW,4.6,-,0.00,,Partly Cloudy,330,2013-05-08 11:25:00
7:45 AM,55.4,55.4,100,29.96,10.0,North,5.8,-,0.00,,Partly Cloudy,360,2013-05-08 11:45:00
8:05 AM,55.4,55.4,100,29.97,10.0,NNW,6.9,-,0.00,,Partly Cloudy,340,2013-05-08 12:05:00
8:25 AM,57.2,57.2,100,29.97,10.0,North,8.1,-,0.00,,Clear,360,2013-05-08 12:25:00
8:45 AM,57.2,55.4,94,29.97,10.0,North,9.2,-,0.00,,Clear,360,2013-05-08 12:45:00
9:05 AM,57.2,55.4,94,29.97,10.0,North,8.1,-,0.00,,Clear,10,2013-05-08 13:05:00
9:25 AM,57.2,55.4,94,29.98,10.0,North,8.1,-,0.00,,Partly Cloudy,10,2013-05-08 13:25:00
9:45 AM,59.0,55.4,88,29.98,10.0,NNE,8.1,-,0.00,,Clear,20,2013-05-08 13:45:00
10:05 AM,60.8,55.4,82,29.98,10.0,NNE,5.8,-,0.00,,Clear,20,2013-05-08 14:05:00
10:25 AM,62.6,55.4,77,29.98,10.0,NE,5.8,-,0.00,,Clear,50,2013-05-08 14:25:00
10:45 AM,64.4,55.4,73,29.98,10.0,ENE,4.6,-,0.00,,Clear,60,2013-05-08 14:45:00
11:05 AM,66.2,55.4,68,29.98,10.0,NNE,3.5,-,0.00,,Clear,30,2013-05-08 15:05:00
11:25 AM,66.2,53.6,64,29.98,10.0,NE,5.8,-,0.00,,Clear,40,2013-05-08 15:25:00
11:45 AM,66.2,53.6,64,29.99,10.0,NNE,6.9,-,0.00,,Partly Cloudy,30,2013-05-08 15:45:00
12:05 PM,69.8,53.6,56,29.98,10.0,NE,9.2,-,0.00,,Clear,40,2013-05-08 16:05:00
12:25 PM,71.6,51.8,50,29.98,10.0,NE,10.4,-,0.00,,Partly Cloudy,40,2013-05-08 16:25:00
12:45 PM,71.6,51.8,50,29.98,10.0,North,15.0,-,0.00,,Clear,360,2013-05-08 16:45:00
1:05 PM,71.6,51.8,50,29.98,10.0,North,10.4,-,0.00,,Clear,10,2013-05-08 17:05:00
1:25 PM,71.6,51.8,50,29.97,10.0,North,8.1,-,0.00,,Partly Cloudy,360,2013-05-08 17:25:00
1:45 PM,71.6,51.8,50,29.97,10.0,North,10.4,-,0.00,,Partly Cloudy,10,2013-05-08 17:45:00
2:05 PM,71.6,51.8,50,29.96,10.0,ENE,9.2,-,0.00,,Scattered Clouds,60,2013-05-08 18:05:00
2:25 PM,71.6,51.8,50,29.96,10.0,NNW,8.1,-,0.00,,Scattered Clouds,330,2013-05-08 18:25:00
2:45 PM,73.4,51.8,47,29.96,10.0,Calm,Calm,-,0.00,,Scattered Clouds,0,2013-05-08 18:45:00
3:05 PM,71.6,51.8,50,29.96,10.0,NNE,8.1,-,0.00,,Partly Cloudy,30,2013-05-08 19:05:00
3:25 PM,71.6,51.8,50,29.96,10.0,NNW,4.6,-,0.00,,Clear,330,2013-05-08 19:25:00
3:45 PM,71.6,51.8,50,29.95,10.0,NNE,5.8,-,0.00,,Partly Cloudy,30,2013-05-08 19:45:00
4:25 PM,71.6,51.8,50,29.94,10.0,North,8.1,-,0.00,,Clear,360,2013-05-08 20:25:00
4:45 PM,71.6,50.0,46,29.93,10.0,NNE,3.5,-,0.00,,Clear,20,2013-05-08 20:45:00
5:05 PM,71.6,51.8,50,29.94,10.0,Calm,Calm,-,0.00,,Clear,0,2013-05-08 21:05:00
5:25 PM,69.8,51.8,53,29.94,10.0,ENE,5.8,-,0.00,,Clear,60,2013-05-08 21:25:00
5:45 PM,71.6,50.0,46,29.94,10.0,Calm,Calm,-,0.00,,Clear,0,2013-05-08 21:45:00
6:05 PM,69.8,53.6,56,29.94,10.0,Calm,Calm,-,0.00,,Clear,0,2013-05-08 22:05:00
6:25 PM,69.8,53.6,56,29.94,10.0,Calm,Calm,-,0.00,,Clear,0,2013-05-08 22:25:00
6:45 PM,69.8,53.6,56,29.94,10.0,WNW,3.5,-,0.00,,Clear,290,2013-05-08 22:45:00
7:05 PM,68.0,53.6,60,29.94,10.0,West,9.2,-,0.00,,Clear,280,2013-05-08 23:05:00
7:25 PM,64.4,51.8,64,29.95,10.0,West,6.9,-,0.00,,Clear,270,2013-05-08 23:25:00
7:45 PM,64.4,51.8,64,29.95,10.0,Calm,Calm,-,0.00,,Clear,0,2013-05-08 23:45:00
8:05 PM,64.4,51.8,64,29.95,8.0,West,3.5,-,0.00,,Scattered Clouds,280,2013-05-09 00:05:00
8:25 PM,62.6,51.8,68,29.95,10.0,Calm,Calm,-,0.00,,Clear,0,2013-05-09 00:25:00
8:45 PM,60.8,51.8,72,29.96,10.0,NNW,3.5,-,0.00,,Scattered Clouds,340,2013-05-09 00:45:00
9:05 PM,62.6,51.8,68,29.96,10.0,Calm,Calm,-,0.00,,Partly Cloudy,0,2013-05-09 01:05:00
9:25 PM,60.8,51.8,72,29.96,10.0,Calm,Calm,-,0.00,,Partly Cloudy,0,2013-05-09 01:25:00
9:45 PM,60.8,53.6,77,29.97,10.0,Calm,Calm,-,0.00,,Partly Cloudy,0,2013-05-09 01:45:00
10:05 PM,57.2,53.6,88,29.98,10.0,NW,3.5,-,0.00,,Partly Cloudy,320,2013-05-09 02:05:00
10:25 PM,59.0,53.6,82,29.98,10.0,Calm,Calm,-,0.00,,Clear,0,2013-05-09 02:25:00
10:45 PM,59.0,51.8,77,29.99,10.0,Calm,Calm,-,0.00,,Clear,0,2013-05-09 02:45:00
11:05 PM,57.2,53.6,88,29.98,10.0,Calm,Calm,-,0.00,,Partly Cloudy,0,2013-05-09 03:05:00
11:25 PM,57.2,51.8,82,29.98,10.0,Calm,Calm,-,0.00,,Clear,0,2013-05-09 03:25:00
11:45 PM,57.2,53.6,88,29.98,10.0,Calm,Calm,-,0.00,,Clear,0,2013-05-09 03:45:00